User: anonymous   Login
Location: Unspecified
(0.0000°N, 0.0000°E)
Time: 12:23:06
(UTC+00:00)
Language:

OPTUS D2 - Orbit

View from above orbital plane
View from above orbital plane
View from above satellite
View from above satellite

Ground track
Ground track

The orbit data is extracted from the following two-line orbital elements,

1 32252U 07044A   15244.80606843 -.00000211  00000-0  00000+0 0  9994
2 32252   0.0417 299.4961 0003002 218.2155 265.1270  1.00272292 28937
Epoch (UTC): 01 September 2015 19:20:44
Eccentricity: 0.0003002
inclination: 0.0417°
perigee height: 35773 km
apogee height: 35799 km
right ascension of ascending node: 299.4961°
argument of perigee: 218.2155°
revolutions per day: 1.00272292
mean anomaly at epoch: 265.1270°
orbit number at epoch: 2893

The dashed part of the orbit path shows where the satellite is in the earth's shadow,  

DLR